Date,TemperatureHighF,TemperatureAvgF,TemperatureLowF,DewpointHighF,DewpointAvgF,DewpointLowF,HumidityHigh,HumidityAvg,HumidityLow,PressureMaxIn,PressureMinIn,WindSpeedMaxMPH,WindSpeedAvgMPH,GustSpeedMaxMPH,PrecipitationSumIn
2013-3-1,58,52,50,53,51,49,99,95,84,30.53,30.45,8,3,21,0.08
2013-3-2,57,49,37,52,47,37,99,93,77,30.47,30.24,8,2,21,0.40
2013-3-3,56,39,33,45,37,32,99,94,52,30.51,30.40,3,0,8,0.02
2013-3-4,54,40,31,43,36,31,99,88,47,30.51,29.69,8,1,13,0.02
2013-3-5,43,41,40,41,41,40,99,98,93,30.00,29.94,1,0,5,0.38
2013-3-6,44,42,39,44,41,39,99,99,97,29.93,29.78,4,1,8,0.18
2013-3-7,55,42,37,45,40,37,99,93,68,30.30,30.25,2,0,6,0.12
2013-3-8,57,42,33,48,39,33,99,89,59,30.45,30.29,5,1,11,0.00
2013-3-9,59,42,31,47,39,31,99,89,62,30.69,30.45,4,1,7,0.02
2013-3-10,42,42,42,42,42,42,99,99,99,30.64,30.63,0,0,0,0.01
2013-3-11,52,44,42,48,44,42,99,97,80,30.65,30.34,2,0,6,0.11
2013-3-12,57,49,45,52,49,45,99,98,83,30.34,30.24,6,3,23,0.39
2013-3-13,60,52,49,53,50,49,99,95,76,30.37,30.27,8,2,16,0.00
2013-3-14,48,47,47,47,47,47,99,99,99,30.33,30.30,2,1,11,0.06
2013-3-15,64,53,46,52,49,45,99,88,62,30.40,30.33,6,2,16,0.02
2013-3-17,53,43,36,41,37,35,97,81,55,30.38,30.35,5,2,11,0.00
2013-3-18,39,36,34,36,35,34,99,96,89,30.44,30.30,4,1,15,0.00
2013-3-19,42,36,33,42,35,33,99,99,99,30.44,29.79,1,0,3,1.30
2013-3-20,53,46,36,49,44,33,99,94,71,30.21,29.55,9,2,24,1.26
2013-3-21,50,38,31,41,35,30,99,92,64,30.41,30.21,8,1,14,0.05
2013-3-22,51,37,30,42,34,29,99,90,60,30.58,30.41,4,1,9,0.02
2013-3-23,54,40,32,41,35,32,99,86,50,30.60,30.51,4,0,9,0.00
2013-3-24,59,41,31,42,36,31,99,84,39,30.51,30.33,4,1,7,0.00
2013-3-25,63,43,32,43,35,31,99,80,33,30.34,30.18,4,1,11,0.00
2013-3-26,61,49,41,45,42,38,97,78,55,30.23,30.17,3,0,6,0.00
2013-3-27,60,48,43,50,45,42,99,90,61,30.20,30.15,4,0,7,0.00
2013-3-28,63,49,42,57,47,42,99,95,73,30.30,30.20,4,1,7,0.00
2013-3-30,69,59,44,52,47,43,99,68,46,30.45,30.29,6,2,11,0.00
2013-3-31,57,46,41,48,43,40,98,92,72,30.29,30.15,4,0,8,0.00